Location: Oberstdorf
(47.4188°N, 10.2969°E)
Time: 14:01:10
(UTC+01:00)

ISS - Pass Details

Date: 15 November 2017
Orbit: 402 x 407 km, 51.6° (Epoch: 24 November)

Event Time Altitude Azimuth Distance (km) Brightness Sun altitude
Exits shadow 04:55:19 31° 102° (ESE) 737 -2.0 -24.9°
Drops below altitude 10° 04:57:09 10° 108° (ESE) 1,452 -0.1 -24.6°
Sets 04:59:14 0° 111° (ESE) 2,309 1.2 -24.3°
